Weather in Izmit

Turkey     40°45′59″N   29°56′26″E
temp.,
°C
wind,
m/s
gust,
m/s
humid.,
%
clouds,
%
prec.,
mm/h
press.,
hPa
HPBL,
m
9 march, tue
tue900:00+3sw12710 0.0 101832
03:00+4ssw12600 0.0 101822
06:00+3s11693 0.0 101822
09:00+6sse016117 0.0 101949
12:00+11nnw11480 0.0 1019598
15:00+13nw22370 0.0 10181313
18:00+10ne34700 0.0 1017530
21:00+6e23801 0.0 1019142
10 march, wed
wed1000:00+5e23810 0.0 101985
03:00+4ene24800 0.0 1018100
06:00+4ene237179 0.0 101685
09:00+6ene226288 0.0 1015119
12:00+11ne2248100 0.0 1013313
15:00+14nne2145100 0.0 1012537
18:00+12ne2262100 0.0 1010200
21:00+8ne117676 0.0 101167
11 march, thu
thu1100:00+8nne127281 0.0 101280
03:00+7nnw138390 0.1 1013300
06:00+6n1395100 3.6 1013215
09:00+6ne3693100 5.7 1013451
12:00+5ne4792100 1.6 1015559
15:00+5ne5989100 2.8 1016782
18:00+4ne6984100 0.4 1018836
21:00+3ne4780100 0.8 1021859
12 march, fri
fri1200:00+2ene267998 0.3 1023401
03:00+1ene127991 0.4 1024204
06:00+1ene128270 0.1 1025105
09:00+2e127975 0.3 1026397
12:00+6ene225212 0.1 10261092
15:00+8ne22436 0.1 10251300
18:00+6ene45600 0.0 1025628
21:00+3e23687 0.0 1024128
13 march, sat
sat1300:00+3ese11646 0.0 102459
03:00+3ese116144 0.0 102333
06:00+3ese116026 0.0 102232
09:00+6e115447 0.0 102292
12:00+11nne113850 0.0 1021404
15:00+14nnw113566 0.0 1020913
18:00+11nne2254100 0.0 1019390
21:00+7ene126786 0.0 102075